• Join FlightAware (Why Join?)
  • Login
  • US Flag 
06:18PM EST


 

Airport Tracker/Info


-or-


 

Live Flight TrackerFlight Track Log ✈ EJA846 ✈ 24-Apr-2013 ✈ KGMU - KTPA

Flight Track Log - Related Links

Times and Time Zones

All times are in EDT time to prevent confusion due to time zone crossing. See the EJA846 flight status page for this flight to view local times or setup timezone preferences in your user account.

Time Position Orientation Groundspeed Altitude Reporting Facility
EDT Latitude Longitude Course Direction KTS MPH feet Rate Location/Type
01:04PM 34.7342 -82.3453 174° South 217 250 7,400  Level Atlanta Center
01:05PM 34.6631 -82.3342 173° South 238 274 11,700 3,900 Climbing Atlanta Center
01:06PM 34.5919 -82.3206 171° South 250 288 15,200 2,450 Climbing Atlanta Center
01:07PM 34.5083 -82.3069 172° South 280 322 16,600 900 Climbing Atlanta Center
01:08PM 34.4119 -82.2864 170° South 321 369 17,000 500 Climbing Atlanta Center
01:09PM 34.2266 -82.3677 172° South  Level Estimated
01:09PM 34.3158 -82.2708 172° South 341 392 17,600  Level Atlanta Center
01:10PM 34.1231 -82.3707 174° South  Level Estimated
01:10PM 34.2217 -82.2525 171° South 341 392 19,500  Level Atlanta Center
01:11PM 34.1253 -82.2369 172° South 352 405 21,100 2,000 Climbing Atlanta Center
01:12PM 34.0208 -82.2167 171° South 363 418 23,500 2,350 Climbing Atlanta Center
01:13PM 33.9203 -82.1989 172° South 368 423 25,800 2,050 Climbing Atlanta Center
01:14PM 33.8136 -82.1786 171° South 373 429 27,600 1,700 Climbing Atlanta Center
01:15PM 33.7050 -82.1861 183° South 378 435 29,200 1,650 Climbing Atlanta Center
01:16PM 33.5947 -82.2008 186° South 395 455 30,900 1,350 Climbing Atlanta Center
01:17PM 33.4822 -82.2156 186° South 401 461 31,900 950 Climbing Atlanta Center
01:18PM 33.3633 -82.2281 185° South 414 476 32,800 1,350 Climbing Atlanta Center
01:19PM 33.2489 -82.2428 186° South 426 490 34,600 1,700 Climbing Atlanta Center
01:20PM 33.1322 -82.2553 185° South 426 490 36,200 1,450 Climbing Atlanta Center
01:21PM 33.0217 -82.2700 186° South 420 483 37,500 900 Climbing Atlanta Center
01:22PM 32.9050 -82.2847 186° South 425 489 38,000 250 Climbing Atlanta Center
01:23PM 32.7861 -82.2969 185° South 425 489 38,000  Level Atlanta Center
01:24PM 32.6758 -82.3114 186° South 420 483 38,000  Level Atlanta Center
01:26PM 32.4492 -82.3361 185° South 436 502 38,000  Level Jacksonville Center
01:27PM 32.3450 -82.3467 185° South 431 496 38,000  Level Jacksonville Center
01:28PM 32.2406 -82.3594 186° South 407 468 38,000  Level Jacksonville Center
01:29PM 32.1342 -82.3725 186° South 394 453 38,000  Level Jacksonville Center
01:30PM 32.0214 -82.3828 184° South 394 453 38,000  Level Jacksonville Center
01:31PM 31.9089 -82.3958 186° South 400 460 38,000  Level Jacksonville Center
01:32PM 31.7961 -82.4086 186° South 411 473 38,000  Level Jacksonville Center
01:33PM 31.6856 -82.4189 185° South 411 473 38,000  Level Jacksonville Center
01:34PM 31.5728 -82.4342 187° South 406 467 38,000  Level Jacksonville Center
01:35PM 31.4600 -82.4444 184° South 406 467 38,000  Level Jacksonville Center
01:36PM 31.3369 -82.4669 189° South 406 467 38,000  Level Jacksonville Center
01:37PM 31.2242 -82.4772 184° South 411 473 38,000  Level Jacksonville Center
01:38PM 31.1136 -82.4897 186° South 406 467 38,000  Level Jacksonville Center
01:39PM 31.0031 -82.5022 186° South 406 467 38,000  Level Jacksonville Center
01:40PM 30.8903 -82.5125 184° South 406 467 38,000  Level Jacksonville Center
01:41PM 30.7756 -82.5250 185° South 406 467 38,000  Level Jacksonville Center
01:42PM 30.6628 -82.5400 187° South 406 467 38,000  Level Jacksonville Center
01:43PM 30.5542 -82.5500 185° South 406 467 38,000  Level Jacksonville Center
01:44PM 30.4372 -82.5408 176° South 406 467 38,000  Level Jacksonville Center
01:45PM 30.3203 -82.5172 170° South 417 480 38,000  Level Jacksonville Center
01:46PM 30.2053 -82.4936 170° South 427 491 38,000 -600 Level Jacksonville Center
01:47PM 30.0864 -82.4678 169° South 432 497 36,800 -1,800 Descending Jacksonville Center
01:48PM 29.9714 -82.4369 167° South 427 491 34,400 -2,300 Descending Jacksonville Center
01:49PM 29.8586 -82.4158 171° South 427 491 32,200 -2,200 Descending Jacksonville Center
01:50PM 29.7436 -82.3903 169° South 427 491 30,000 -2,200 Descending Jacksonville Center
01:51PM 29.6286 -82.3669 170° South 427 491 27,800 -2,000 Descending Jacksonville Center
01:52PM 29.5283 -82.3508 172° South 427 491 26,000 -2,000 Descending Jacksonville Center
01:53PM 29.4114 -82.3372 174° South 422 486 23,800 -2,100 Descending Jacksonville Center
01:54PM 29.3008 -82.3233 174° South 422 486 21,800 -1,900 Descending Jacksonville Center
01:55PM 29.1922 -82.3122 175° South 415 478 20,000 -1,800 Descending Jacksonville Center
01:56PM 29.0856 -82.2986 174° South 402 463 18,200 -1,700 Descending Jacksonville Center
01:57PM 28.9811 -82.2872 175° South 386 444 16,600 -1,750 Descending Jacksonville Center
01:58PM 28.8872 -82.2761 174° South 373 429 14,700 -1,430 Descending Jacksonville Center
02:00PM 28.7333 -82.2667 177° South 335 386 13,000 -1,146 Descending Tampa TRACON
02:01PM 28.6333 -82.2667 180° South 302 348 11,700 -1,339 Descending Tampa TRACON
02:02PM 28.5667 -82.2500 168° South 299 344 10,300 -1,476 Descending Tampa TRACON
02:03PM 28.4667 -82.2500 180° South 290 334 8,600 -1,381 Descending Tampa TRACON
02:04PM 28.4000 -82.2500 180° South 271 312 7,400 -881 Descending Tampa TRACON
02:05PM 28.3333 -82.2833 204° Southwest 281 323 7,000 -947 Descending Tampa TRACON
02:06PM 28.3000 -82.3500 240° Southwest 269 310 5,600 -952 Descending Tampa TRACON
02:07PM 28.2833 -82.4333 257° West 259 298 5,000 -619 Descending Tampa TRACON
02:08PM 28.2500 -82.4833 233° Southwest 245 282 4,300 -737 Descending Tampa TRACON
02:09PM 28.1833 -82.5167 204° Southwest 248 285 3,600 -895 Descending Tampa TRACON
02:10PM 28.1167 -82.5167 180° South 241 277 2,600 -1,096 Descending Tampa TRACON
02:11PM 28.0667 -82.5333 196° South 244 281 1,500 -991 Descending Tampa TRACON
02:12PM 28.0167 -82.5333 180° South 157 181 700 -800 Descending Tampa TRACON
02:14PM 27.9755 -82.5332 172° South  Level Estimated
02:21PM 27.9755 -82.5332 172° South  Level Estimated
02:22PM 27.9755 -82.5332 172° South  Level Estimated